Location: Brantley
(31.5822°N, 86.2569°W)
Time: 02:51:13
(UTC+00:00)

Vanguard 2 - Pass Details

Date: 20 February 2026
Orbit: 553 x 2896 km, 32.9° (Epoch: 13 March)

Event Time Altitude Azimuth Distance (km) Brightness Sun altitude
Rises 12:57:23 0° 274° (W) 3,461 10.2 6.5°
Reaches altitude 10° 13:00:18 10° 276° (W) 2,266 9.4 7.1°
Maximum altitude 13:05:14 75° 1° (N) 625 7.2 8.1°
Drops below altitude 10° 13:09:11 10° 88° (E) 1,824 11.1 8.9°
Sets 13:11:18 0° 90° (E) 2,720 11.9 9.4°
